"Sample Date","Sample Time","Sensor Name","Sample Value","Units","Flow Rate","Sample Interval","Sample Volume","Laser Status","Number Channels","Micron Size 0","Counts/Channel 0","Micron Size 1","Counts/Channel 1","Micron Size 2","Counts/Channel 2","Micron Size 3","Counts/Channel 3","Micron Size 4","Counts/Channel 4","Micron Size 5","Counts/Channel 5","Micron Size 6","Counts/Channel 6","Micron Size 7","Counts/Channel 7","Micron Size 8","Counts/Channel 8","Micron Size 9","Counts/Channel 9","Micron Size 10","Counts/Channel 10","Micron Size 11","Counts/Channel 11","Micron Size 12","Counts/Channel 12","Micron Size 13","Counts/Channel 13","Micron Size 14","Counts/Channel 14","Micron Size 15","Counts/Channel 15","Micron Size 16","Counts/Channel 16","Micron Size 17","Counts/Channel 17","Micron Size 18","Counts/Channel 18","Micron Size 19","Counts/Channel 19","Micron Size 20","Counts/Channel 20","Micron Size 21","Counts/Channel 21","Micron Size 22","Counts/Channel 22","Micron Size 23","Counts/Channel 23","Micron Size 24","Counts/Channel 24","Micron Size 25","Counts/Channel 25","Micron Size 26","Counts/Channel 26","Micron Size 27","Counts/Channel 27","Micron Size 28","Counts/Channel 28","Micron Size 29","Counts/Channel 29","Micron Size 30","Counts/Channel 30","Micron Size 31","Counts/Channel 31"
"07/10/06","09:00:02","AMMA06",40278.000,"cc",28307.752,6.00,2830.775,1,6,0.100,20782.000,0.200,16692.000,0.300,2632.000,0.500,118.000,1.000,54.000,5.000,0
"07/10/06","09:00:08","AMMA06",40420.000,"cc",28305.182,6.00,2830.518,1,6,0.100,20892.000,0.200,16849.000,0.300,2529.000,0.500,110.000,1.000,40.000,5.000,0
"07/10/06","09:00:14","AMMA06",40612.000,"cc",28335.654,6.00,2833.566,1,6,0.100,21164.000,0.200,16732.000,0.300,2560.000,0.500,107.000,1.000,49.000,5.000,0
"07/10/06","09:00:20","AMMA06",40349.000,"cc",28294.303,6.00,2829.430,1,6,0.100,20810.000,0.200,16816.000,0.300,2575.000,0.500,108.000,1.000,40.000,5.000,0
"07/10/06","09:00:26","AMMA06",40211.000,"cc",28312.781,6.00,2831.278,1,6,0.100,20751.000,0.200,16823.000,0.300,2496.000,0.500,95.000,1.000,46.000,5.000,0
"07/10/06","09:00:32","AMMA06",40385.000,"cc",28301.371,6.00,2830.137,1,6,0.100,20952.000,0.200,16841.000,0.300,2461.000,0.500,92.000,1.000,39.000,5.000,0
"07/10/06","09:00:38","AMMA06",40133.000,"cc",28308.514,6.00,2830.852,1,6,0.100,20760.000,0.200,16647.000,0.300,2580.000,0.500,105.000,1.000,41.000,5.000,0
"07/10/06","09:00:44","AMMA06",40614.000,"cc",28327.563,6.00,2832.756,1,6,0.100,20853.000,0.200,17067.000,0.300,2557.000,0.500,96.000,1.000,41.000,5.000,0
"07/10/06","09:00:50","AMMA06",40323.000,"cc",28317.801,6.00,2831.780,1,6,0.100,21005.000,0.200,16703.000,0.300,2471.000,0.500,98.000,1.000,46.000,5.000,0
"07/10/06","09:00:56","AMMA06",40204.000,"cc",28305.111,6.00,2830.511,1,6,0.100,20761.000,0.200,16729.000,0.300,2544.000,0.500,117.000,1.000,53.000,5.000,0
"07/10/06","09:01:02","AMMA06",40202.000,"cc",28317.357,6.00,2831.736,1,6,0.100,20729.000,0.200,16743.000,0.300,2562.000,0.500,122.000,1.000,46.000,5.000,0
"07/10/06","09:01:08","AMMA06",40131.000,"cc",28331.035,6.00,2833.104,1,6,0.100,20450.000,0.200,16923.000,0.300,2598.000,0.500,115.000,1.000,45.000,5.000,0
"07/10/06","09:01:14","AMMA06",40366.000,"cc",28317.285,6.00,2831.729,1,6,0.100,20706.000,0.200,16967.000,0.300,2546.000,0.500,114.000,1.000,33.000,5.000,0
"07/10/06","09:01:20","AMMA06",40762.000,"cc",28365.711,6.00,2836.571,1,6,0.100,20679.000,0.200,17240.000,0.300,2681.000,0.500,109.000,1.000,53.000,5.000,0
"07/10/06","09:01:26","AMMA06",39882.000,"cc",28306.266,6.00,2830.627,1,6,0.100,20298.000,0.200,16867.000,0.300,2550.000,0.500,115.000,1.000,52.000,5.000,0
"07/10/06","09:01:32","AMMA06",40258.000,"cc",28301.963,6.00,2830.197,1,6,0.100,20603.000,0.200,16866.000,0.300,2635.000,0.500,102.000,1.000,52.000,5.000,0
"07/10/06","09:01:38","AMMA06",40272.000,"cc",28314.178,6.00,2831.418,1,6,0.100,20473.000,0.200,17027.000,0.300,2615.000,0.500,114.000,1.000,43.000,5.000,0
"07/10/06","09:01:44","AMMA06",39991.000,"cc",28334.248,6.00,2833.425,1,6,0.100,20518.000,0.200,16676.000,0.300,2635.000,0.500,108.000,1.000,54.000,5.000,0
"07/10/06","09:01:50","AMMA06",40425.000,"cc",28309.727,6.00,2830.973,1,6,0.100,20507.000,0.200,17067.000,0.300,2695.000,0.500,119.000,1.000,37.000,5.000,0
"07/10/06","09:01:56","AMMA06",40265.000,"cc",28315.926,6.00,2831.593,1,6,0.100,20504.000,0.200,17055.000,0.300,2530.000,0.500,115.000,1.000,61.000,5.000,0
"07/10/06","09:02:02","AMMA06",40159.000,"cc",28286.908,6.00,2828.691,1,6,0.100,20200.000,0.200,17120.000,0.300,2680.000,0.500,108.000,1.000,51.000,5.000,0
"07/10/06","09:02:08","AMMA06",40558.000,"cc",28324.398,6.00,2832.440,1,6,0.100,20653.000,0.200,17117.000,0.300,2656.000,0.500,91.000,1.000,41.000,5.000,0
"07/10/06","09:02:14","AMMA06",40105.000,"cc",28352.373,6.00,2835.238,1,6,0.100,20316.000,0.200,16961.000,0.300,2686.000,0.500,99.000,1.000,43.000,5.000,0
"07/10/06","09:02:20","AMMA06",40185.000,"cc",28333.455,6.00,2833.346,1,6,0.100,20378.000,0.200,17006.000,0.300,2658.000,0.500,99.000,1.000,44.000,5.000,0
"07/10/06","09:02:26","AMMA06",40273.000,"cc",28303.031,6.00,2830.303,1,6,0.100,20439.000,0.200,17055.000,0.300,2652.000,0.500,90.000,1.000,37.000,5.000,0
"07/10/06","09:02:32","AMMA06",40422.000,"cc",28375.533,6.00,2837.554,1,6,0.100,20383.000,0.200,17128.000,0.300,2745.000,0.500,118.000,1.000,48.000,5.000,0
"07/10/06","09:02:38","AMMA06",40198.000,"cc",28312.260,6.00,2831.226,1,6,0.100,20250.000,0.200,17084.000,0.300,2704.000,0.500,103.000,1.000,57.000,5.000,0
"07/10/06","09:02:44","AMMA06",40594.000,"cc",28321.471,6.00,2832.147,1,6,0.100,20406.000,0.200,17211.000,0.300,2810.000,0.500,128.000,1.000,39.000,5.000,0
"07/10/06","09:02:50","AMMA06",40310.000,"cc",28288.574,6.00,2828.858,1,6,0.100,20226.000,0.200,17197.000,0.300,2727.000,0.500,107.000,1.000,53.000,5.000,0
"07/10/06","09:02:56","AMMA06",40574.000,"cc",28298.135,6.00,2829.814,1,6,0.100,20569.000,0.200,17152.000,0.300,2667.000,0.500,133.000,1.000,53.000,5.000,0
"07/10/06","09:03:02","AMMA06",40074.000,"cc",28272.164,6.00,2827.217,1,6,0.100,20093.000,0.200,17017.000,0.300,2802.000,0.500,114.000,1.000,48.000,5.000,0
"07/10/06","09:03:08","AMMA06",40339.000,"cc",28327.791,6.00,2832.779,1,6,0.100,20464.000,0.200,17015.000,0.300,2705.000,0.500,107.000,1.000,48.000,5.000,0
"07/10/06","09:03:14","AMMA06",40166.000,"cc",28333.229,6.00,2833.323,1,6,0.100,20045.000,0.200,17166.000,0.300,2774.000,0.500,133.000,1.000,48.000,5.000,0
"07/10/06","09:03:20","AMMA06",40294.000,"cc",28356.527,6.00,2835.653,1,6,0.100,20183.000,0.200,17251.000,0.300,2678.000,0.500,134.000,1.000,48.000,5.000,0
"07/10/06","09:03:26","AMMA06",40305.000,"cc",28291.178,6.00,2829.118,1,6,0.100,20253.000,0.200,17163.000,0.300,2743.000,0.500,109.000,1.000,37.000,5.000,0
"07/10/06","09:03:32","AMMA06",40356.000,"cc",28281.922,6.00,2828.192,1,6,0.100,20336.000,0.200,17091.000,0.300,2764.000,0.500,110.000,1.000,55.000,5.000,0
"07/10/06","09:03:38","AMMA06",40662.000,"cc",28329.164,6.00,2832.917,1,6,0.100,20452.000,0.200,17277.000,0.300,2767.000,0.500,118.000,1.000,48.000,5.000,0
"07/10/06","09:03:44","AMMA06",40638.000,"cc",28322.379,6.00,2832.238,1,6,0.100,20536.000,0.200,17163.000,0.300,2786.000,0.500,109.000,1.000,44.000,5.000,0
"07/10/06","09:03:50","AMMA06",40618.000,"cc",28348.354,6.00,2834.835,1,6,0.100,20582.000,0.200,17057.000,0.300,2808.000,0.500,119.000,1.000,52.000,5.000,0
"07/10/06","09:03:56","AMMA06",40468.000,"cc",28284.457,6.00,2828.446,1,6,0.100,20420.000,0.200,17199.000,0.300,2685.000,0.500,118.000,1.000,46.000,5.000,0
"07/10/06","09:04:02","AMMA06",40186.000,"cc",28265.166,6.00,2826.517,1,6,0.100,20362.000,0.200,17004.000,0.300,2672.000,0.500,108.000,1.000,40.000,5.000,0
"07/10/06","09:04:08","AMMA06",40329.000,"cc",28361.283,6.00,2836.128,1,6,0.100,20480.000,0.200,16960.000,0.300,2734.000,0.500,108.000,1.000,47.000,5.000,0
"07/10/06","09:04:14","AMMA06",40755.000,"cc",28338.363,6.00,2833.836,1,6,0.100,20677.000,0.200,17174.000,0.300,2723.000,0.500,125.000,1.000,56.000,5.000,0
"07/10/06","09:04:20","AMMA06",40177.000,"cc",28330.594,6.00,2833.060,1,6,0.100,20330.000,0.200,16993.000,0.300,2700.000,0.500,94.000,1.000,60.000,5.000,0
"07/10/06","09:04:26","AMMA06",40286.000,"cc",28327.660,6.00,2832.766,1,6,0.100,20494.000,0.200,16894.000,0.300,2743.000,0.500,107.000,1.000,48.000,5.000,0
"07/10/06","09:04:32","AMMA06",40137.000,"cc",28326.352,6.00,2832.635,1,6,0.100,20355.000,0.200,16907.000,0.300,2700.000,0.500,117.000,1.000,58.000,5.000,0
"07/10/06","09:04:38","AMMA06",40587.000,"cc",28293.861,6.00,2829.386,1,6,0.100,20605.000,0.200,17144.000,0.300,2679.000,0.500,116.000,1.000,43.000,5.000,0
"07/10/06","09:04:44","AMMA06",40408.000,"cc",28281.488,6.00,2828.149,1,6,0.100,20641.000,0.200,17019.000,0.300,2593.000,0.500,118.000,1.000,37.000,5.000,0
"07/10/06","09:04:50","AMMA06",40645.000,"cc",28338.856,6.00,2833.886,1,6,0.100,20797.000,0.200,16992.000,0.300,2665.000,0.500,141.000,1.000,50.000,5.000,0
"07/10/06","09:04:56","AMMA06",40509.000,"cc",28377.801,6.00,2837.780,1,6,0.100,20598.000,0.200,17079.000,0.300,2663.000,0.500,130.000,1.000,39.000,5.000,0
"07/10/06","09:05:02","AMMA06",40792.000,"cc",28277.039,6.00,2827.704,1,6,0.100,20827.000,0.200,17249.000,0.300,2533.000,0.500,117.000,1.000,66.000,5.000,0
"07/10/06","09:05:08","AMMA06",40417.000,"cc",28297.357,6.00,2829.736,1,6,0.100,20567.000,0.200,17050.000,0.300,2648.000,0.500,106.000,1.000,46.000,5.000,0
"07/10/06","09:05:14","AMMA06",40993.000,"cc",28316.063,6.00,2831.606,1,6,0.100,21022.000,0.200,17218.000,0.300,2601.000,0.500,104.000,1.000,48.000,5.000,0
"07/10/06","09:05:20","AMMA06",40470.000,"cc",28283.201,6.00,2828.320,1,6,0.100,20320.000,0.200,17357.000,0.300,2628.000,0.500,119.000,1.000,46.000,5.000,0
"07/10/06","09:05:26","AMMA06",40225.000,"cc",28268.465,6.00,2826.847,1,6,0.100,20359.000,0.200,17020.000,0.300,2676.000,0.500,120.000,1.000,50.000,5.000,0
"07/10/06","09:05:32","AMMA06",40697.000,"cc",28308.647,6.00,2830.865,1,6,0.100,20765.000,0.200,17064.000,0.300,2690.000,0.500,124.000,1.000,54.000,5.000,0
"07/10/06","09:05:38","AMMA06",40489.000,"cc",28384.832,6.00,2838.483,1,6,0.100,20683.000,0.200,17052.000,0.300,2600.000,0.500,101.000,1.000,53.000,5.000,0
"07/10/06","09:05:44","AMMA06",39864.000,"cc",28350.221,6.00,2835.022,1,6,0.100,20259.000,0.200,16781.000,0.300,2679.000,0.500,95.000,1.000,50.000,5.000,0
"07/10/06","09:05:50","AMMA06",40132.000,"cc",28306.295,6.00,2830.630,1,6,0.100,20288.000,0.200,17021.000,0.300,2647.000,0.500,127.000,1.000,49.000,5.000,0
"07/10/06","09:05:56","AMMA06",40113.000,"cc",28343.904,6.00,2834.391,1,6,0.100,20472.000,0.200,16851.000,0.300,2617.000,0.500,132.000,1.000,41.000,5.000,0
"07/10/06","09:06:02","AMMA06",40247.000,"cc",28321.166,6.00,2832.117,1,6,0.100,20492.000,0.200,17023.000,0.300,2568.000,0.500,111.000,1.000,53.000,5.000,0
"07/10/06","09:06:08","AMMA06",40395.000,"cc",28330.766,6.00,2833.077,1,6,0.100,20498.000,0.200,17054.000,0.300,2669.000,0.500,113.000,1.000,61.000,5.000,0
"07/10/06","09:06:14","AMMA06",40592.000,"cc",28308.297,6.00,2830.830,1,6,0.100,20630.000,0.200,17089.000,0.300,2710.000,0.500,115.000,1.000,48.000,5.000,0
"07/10/06","09:06:20","AMMA06",40124.000,"cc",28303.758,6.00,2830.376,1,6,0.100,20349.000,0.200,17030.000,0.300,2590.000,0.500,113.000,1.000,42.000,5.000,0
"07/10/06","09:06:26","AMMA06",40246.000,"cc",28303.533,6.00,2830.354,1,6,0.100,20373.000,0.200,17053.000,0.300,2653.000,0.500,120.000,1.000,47.000,5.000,0
"07/10/06","09:06:32","AMMA06",40193.000,"cc",28336.953,6.00,2833.696,1,6,0.100,20242.000,0.200,17016.000,0.300,2773.000,0.500,107.000,1.000,55.000,5.000,0
"07/10/06","09:06:38","AMMA06",39991.000,"cc",28305.279,6.00,2830.528,1,6,0.100,20201.000,0.200,16984.000,0.300,2644.000,0.500,128.000,1.000,34.000,5.000,0
"07/10/06","09:06:44","AMMA06",40204.000,"cc",28303.809,6.00,2830.381,1,6,0.100,20345.000,0.200,16975.000,0.300,2717.000,0.500,114.000,1.000,53.000,5.000,0
"07/10/06","09:06:50","AMMA06",40266.000,"cc",28330.586,6.00,2833.059,1,6,0.100,20249.000,0.200,17231.000,0.300,2622.000,0.500,122.000,1.000,42.000,5.000,0
"07/10/06","09:06:56","AMMA06",40168.000,"cc",28264.066,6.00,2826.407,1,6,0.100,20220.000,0.200,17111.000,0.300,2686.000,0.500,114.000,1.000,37.000,5.000,0
"07/10/06","09:07:02","AMMA06",40468.000,"cc",28340.426,6.00,2834.043,1,6,0.100,20529.000,0.200,17024.000,0.300,2729.000,0.500,134.000,1.000,52.000,5.000,0
"07/10/06","09:07:08","AMMA06",40474.000,"cc",28309.648,6.00,2830.965,1,6,0.100,20255.000,0.200,17329.000,0.300,2711.000,0.500,136.000,1.000,43.000,5.000,0
"07/10/06","09:07:14","AMMA06",40342.000,"cc",28273.672,6.00,2827.367,1,6,0.100,20327.000,0.200,17269.000,0.300,2578.000,0.500,117.000,1.000,51.000,5.000,0
"07/10/06","09:07:20","AMMA06",40179.000,"cc",28338.436,6.00,2833.844,1,6,0.100,20297.000,0.200,16986.000,0.300,2710.000,0.500,133.000,1.000,53.000,5.000,0
"07/10/06","09:07:26","AMMA06",40244.000,"cc",28330.723,6.00,2833.073,1,6,0.100,19998.000,0.200,17183.000,0.300,2827.000,0.500,164.000,1.000,72.000,5.000,0
"07/10/06","09:07:32","AMMA06",40226.000,"cc",28298.572,6.00,2829.857,1,6,0.100,20175.000,0.200,17148.000,0.300,2739.000,0.500,111.000,1.000,53.000,5.000,0
"07/10/06","09:07:38","AMMA06",40615.000,"cc",28314.111,6.00,2831.411,1,6,0.100,20526.000,0.200,17208.000,0.300,2711.000,0.500,119.000,1.000,51.000,5.000,0
"07/10/06","09:07:44","AMMA06",40475.000,"cc",28323.807,6.00,2832.381,1,6,0.100,20204.000,0.200,17315.000,0.300,2756.000,0.500,143.000,1.000,57.000,5.000,0
"07/10/06","09:07:50","AMMA06",42365.000,"cc",28300.211,6.00,2830.021,1,6,0.100,21053.000,0.200,17665.000,0.300,3132.000,0.500,368.000,1.000,147.000,5.000,0
"07/10/06","09:07:56","AMMA06",40699.000,"cc",28335.369,6.00,2833.537,1,6,0.100,20390.000,0.200,17127.000,0.300,2901.000,0.500,211.000,1.000,70.000,5.000,0
"07/10/06","09:08:02","AMMA06",41041.000,"cc",28338.219,6.00,2833.822,1,6,0.100,20476.000,0.200,17390.000,0.300,2851.000,0.500,243.000,1.000,81.000,5.000,0
"07/10/06","09:08:08","AMMA06",40708.000,"cc",28328.174,6.00,2832.818,1,6,0.100,20369.000,0.200,17266.000,0.300,2856.000,0.500,165.000,1.000,52.000,5.000,0
"07/10/06","09:08:14","AMMA06",40640.000,"cc",28265.488,6.00,2826.549,1,6,0.100,20341.000,0.200,17332.000,0.300,2792.000,0.500,127.000,1.000,48.000,5.000,0
"07/10/06","09:08:20","AMMA06",41136.000,"cc",28351.557,6.00,2835.156,1,6,0.100,20643.000,0.200,17461.000,0.300,2890.000,0.500,107.000,1.000,35.000,5.000,0
"07/10/06","09:08:26","AMMA06",40968.000,"cc",28341.600,6.00,2834.160,1,6,0.100,20533.000,0.200,17377.000,0.300,2895.000,0.500,124.000,1.000,39.000,5.000,0
"07/10/06","09:08:32","AMMA06",40769.000,"cc",28306.529,6.00,2830.653,1,6,0.100,20515.000,0.200,17338.000,0.300,2764.000,0.500,107.000,1.000,45.000,5.000,0
"07/10/06","09:08:38","AMMA06",40703.000,"cc",28330.162,6.00,2833.016,1,6,0.100,20388.000,0.200,17416.000,0.300,2743.000,0.500,108.000,1.000,48.000,5.000,0
"07/10/06","09:08:44","AMMA06",40805.000,"cc",28310.152,6.00,2831.015,1,6,0.100,20488.000,0.200,17340.000,0.300,2801.000,0.500,117.000,1.000,59.000,5.000,0
"07/10/06","09:08:50","AMMA06",40739.000,"cc",28312.291,6.00,2831.229,1,6,0.100,20393.000,0.200,17437.000,0.300,2718.000,0.500,125.000,1.000,66.000,5.000,0
"07/10/06","09:08:56","AMMA06",40696.000,"cc",28345.660,6.00,2834.566,1,6,0.100,20240.000,0.200,17418.000,0.300,2883.000,0.500,116.000,1.000,39.000,5.000,0
"07/10/06","09:09:02","AMMA06",40559.000,"cc",28290.522,6.00,2829.052,1,6,0.100,20103.000,0.200,17430.000,0.300,2863.000,0.500,115.000,1.000,48.000,5.000,0
"07/10/06","09:09:08","AMMA06",40631.000,"cc",28311.156,6.00,2831.116,1,6,0.100,20057.000,0.200,17494.000,0.300,2911.000,0.500,115.000,1.000,54.000,5.000,0
"07/10/06","09:09:14","AMMA06",41149.000,"cc",28328.145,6.00,2832.815,1,6,0.100,20422.000,0.200,17616.000,0.300,2947.000,0.500,122.000,1.000,42.000,5.000,0
"07/10/06","09:09:20","AMMA06",40857.000,"cc",28270.473,6.00,2827.047,1,6,0.100,20231.000,0.200,17605.000,0.300,2855.000,0.500,113.000,1.000,53.000,5.000,0
"07/10/06","09:09:26","AMMA06",40903.000,"cc",28324.383,6.00,2832.439,1,6,0.100,20057.000,0.200,17648.000,0.300,3027.000,0.500,119.000,1.000,52.000,5.000,0
"07/10/06","09:09:32","AMMA06",40849.000,"cc",28338.428,6.00,2833.843,1,6,0.100,20110.000,0.200,17566.000,0.300,3019.000,0.500,112.000,1.000,41.000,5.000,1.000
"07/10/06","09:09:38","AMMA06",41021.000,"cc",28316.951,6.00,2831.695,1,6,0.100,19999.000,0.200,17812.000,0.300,3046.000,0.500,109.000,1.000,55.000,5.000,0
"07/10/06","09:09:44","AMMA06",40582.000,"cc",28364.354,6.00,2836.436,1,6,0.100,19585.000,0.200,17838.000,0.300,2980.000,0.500,120.000,1.000,59.000,5.000,0
"07/10/06","09:09:50","AMMA06",41105.000,"cc",28307.459,6.00,2830.746,1,6,0.100,20063.000,0.200,17885.000,0.300,3001.000,0.500,112.000,1.000,44.000,5.000,0
"07/10/06","09:09:56","AMMA06",41001.000,"cc",28306.795,6.00,2830.680,1,6,0.100,19931.000,0.200,17850.000,0.300,3050.000,0.500,126.000,1.000,44.000,5.000,0
"07/10/06","09:10:02","AMMA06",40934.000,"cc",28304.004,6.00,2830.401,1,6,0.100,19939.000,0.200,17772.000,0.300,3023.000,0.500,145.000,1.000,55.000,5.000,0
"07/10/06","09:10:08","AMMA06",40667.000,"cc",28276.469,6.00,2827.647,1,6,0.100,19847.000,0.200,17605.000,0.300,3036.000,0.500,124.000,1.000,55.000,5.000,0
"07/10/06","09:10:14","AMMA06",41000.000,"cc",28324.938,6.00,2832.494,1,6,0.100,20083.000,0.200,17768.000,0.300,2998.000,0.500,110.000,1.000,41.000,5.000,0
"07/10/06","09:10:20","AMMA06",40875.000,"cc",28342.791,6.00,2834.279,1,6,0.100,20234.000,0.200,17457.000,0.300,3035.000,0.500,120.000,1.000,29.000,5.000,0
"07/10/06","09:10:26","AMMA06",40977.000,"cc",28325.162,6.00,2832.516,1,6,0.100,20210.000,0.200,17549.000,0.300,3059.000,0.500,112.000,1.000,47.000,5.000,0
"07/10/06","09:10:32","AMMA06",40642.000,"cc",28302.029,6.00,2830.203,1,6,0.100,19760.000,0.200,17746.000,0.300,2968.000,0.500,122.000,1.000,46.000,5.000,0
"07/10/06","09:10:38","AMMA06",40614.000,"cc",28317.291,6.00,2831.729,1,6,0.100,19909.000,0.200,17580.000,0.300,2973.000,0.500,106.000,1.000,46.000,5.000,0
"07/10/06","09:10:44","AMMA06",40614.000,"cc",28332.742,6.00,2833.274,1,6,0.100,20023.000,0.200,17497.000,0.300,2930.000,0.500,125.000,1.000,39.000,5.000,0
"07/10/06","09:10:50","AMMA06",40535.000,"cc",28322.416,6.00,2832.242,1,6,0.100,20031.000,0.200,17397.000,0.300,2937.000,0.500,110.000,1.000,60.000,5.000,0
"07/10/06","09:10:56","AMMA06",40481.000,"cc",28320.043,6.00,2832.004,1,6,0.100,20157.000,0.200,17313.000,0.300,2846.000,0.500,119.000,1.000,46.000,5.000,0
"07/10/06","09:11:02","AMMA06",40471.000,"cc",28319.965,6.00,2831.997,1,6,0.100,19984.000,0.200,17426.000,0.300,2903.000,0.500,110.000,1.000,48.000,5.000,0
"07/10/06","09:11:08","AMMA06",40116.000,"cc",28243.949,6.00,2824.395,1,6,0.100,20074.000,0.200,17186.000,0.300,2711.000,0.500,104.000,1.000,41.000,5.000,0
"07/10/06","09:11:14","AMMA06",40625.000,"cc",28358.291,6.00,2835.829,1,6,0.100,20205.000,0.200,17470.000,0.300,2785.000,0.500,120.000,1.000,45.000,5.000,0
"07/10/06","09:11:20","AMMA06",40570.000,"cc",28330.609,6.00,2833.061,1,6,0.100,20119.000,0.200,17468.000,0.300,2812.000,0.500,121.000,1.000,50.000,5.000,0
"07/10/06","09:11:26","AMMA06",40842.000,"cc",28285.045,6.00,2828.505,1,6,0.100,20529.000,0.200,17388.000,0.300,2784.000,0.500,112.000,1.000,29.000,5.000,0
"07/10/06","09:11:32","AMMA06",40442.000,"cc",28329.850,6.00,2832.985,1,6,0.100,20231.000,0.200,17227.000,0.300,2806.000,0.500,115.000,1.000,63.000,5.000,0
"07/10/06","09:11:38","AMMA06",40957.000,"cc",28313.492,6.00,2831.349,1,6,0.100,20517.000,0.200,17492.000,0.300,2804.000,0.500,100.000,1.000,44.000,5.000,0
"07/10/06","09:11:44","AMMA06",40623.000,"cc",28334.061,6.00,2833.406,1,6,0.100,20289.000,0.200,17411.000,0.300,2768.000,0.500,118.000,1.000,37.000,5.000,0
"07/10/06","09:11:50","AMMA06",40923.000,"cc",28315.799,6.00,2831.580,1,6,0.100,20464.000,0.200,17463.000,0.300,2811.000,0.500,136.000,1.000,49.000,5.000,0
"07/10/06","09:11:56","AMMA06",40514.000,"cc",28304.686,6.00,2830.469,1,6,0.100,20331.000,0.200,17181.000,0.300,2800.000,0.500,137.000,1.000,65.000,5.000,0
"07/10/06","09:12:02","AMMA06",40482.000,"cc",28243.016,6.00,2824.302,1,6,0.100,20281.000,0.200,17285.000,0.300,2727.000,0.500,138.000,1.000,51.000,5.000,0
"07/10/06","09:12:08","AMMA06",40766.000,"cc",28369.734,6.00,2836.974,1,6,0.100,20450.000,0.200,17390.000,0.300,2760.000,0.500,125.000,1.000,41.000,5.000,0
"07/10/06","09:12:14","AMMA06",40641.000,"cc",28327.135,6.00,2832.714,1,6,0.100,20517.000,0.200,17257.000,0.300,2715.000,0.500,109.000,1.000,43.000,5.000,0
"07/10/06","09:12:20","AMMA06",40555.000,"cc",28298.043,6.00,2829.804,1,6,0.100,20396.000,0.200,17178.000,0.300,2796.000,0.500,135.000,1.000,50.000,5.000,0
"07/10/06","09:12:26","AMMA06",40222.000,"cc",28301.469,6.00,2830.147,1,6,0.100,20069.000,0.200,17305.000,0.300,2686.000,0.500,120.000,1.000,42.000,5.000,0
"07/10/06","09:12:32","AMMA06",40794.000,"cc",28309.902,6.00,2830.991,1,6,0.100,20673.000,0.200,17273.000,0.300,2677.000,0.500,117.000,1.000,54.000,5.000,0
"07/10/06","09:12:38","AMMA06",40683.000,"cc",28303.842,6.00,2830.384,1,6,0.100,20413.000,0.200,17414.000,0.300,2696.000,0.500,116.000,1.000,44.000,5.000,0
"07/10/06","09:12:44","AMMA06",40365.000,"cc",28337.568,6.00,2833.757,1,6,0.100,20295.000,0.200,17218.000,0.300,2691.000,0.500,109.000,1.000,52.000,5.000,0
"07/10/06","09:12:50","AMMA06",40893.000,"cc",28321.813,6.00,2832.181,1,6,0.100,20732.000,0.200,17357.000,0.300,2659.000,0.500,103.000,1.000,42.000,5.000,0
"07/10/06","09:12:56","AMMA06",40402.000,"cc",28340.807,6.00,2834.081,1,6,0.100,20415.000,0.200,17060.000,0.300,2772.000,0.500,116.000,1.000,39.000,5.000,0
"07/10/06","09:13:02","AMMA06",40435.000,"cc",28369.539,6.00,2836.954,1,6,0.100,20587.000,0.200,16956.000,0.300,2728.000,0.500,118.000,1.000,46.000,5.000,0
"07/10/06","09:13:08","AMMA06",40441.000,"cc",28253.143,6.00,2825.315,1,6,0.100,20644.000,0.200,17033.000,0.300,2604.000,0.500,103.000,1.000,57.000,5.000,0
"07/10/06","09:13:14","AMMA06",40508.000,"cc",28329.531,6.00,2832.953,1,6,0.100,20679.000,0.200,17022.000,0.300,2637.000,0.500,116.000,1.000,54.000,5.000,0
"07/10/06","09:13:20","AMMA06",40563.000,"cc",28330.147,6.00,2833.015,1,6,0.100,20664.000,0.200,17191.000,0.300,2553.000,0.500,112.000,1.000,43.000,5.000,0
"07/10/06","09:13:26","AMMA06",40781.000,"cc",28281.514,6.00,2828.152,1,6,0.100,20671.000,0.200,17259.000,0.300,2633.000,0.500,165.000,1.000,53.000,5.000,0
"07/10/06","09:13:32","AMMA06",40460.000,"cc",28323.451,6.00,2832.345,1,6,0.100,20903.000,0.200,16818.000,0.300,2567.000,0.500,115.000,1.000,57.000,5.000,0
"07/10/06","09:13:38","AMMA06",40344.000,"cc",28364.096,6.00,2836.410,1,6,0.100,20457.000,0.200,17149.000,0.300,2558.000,0.500,132.000,1.000,48.000,5.000,0
"07/10/06","09:13:44","AMMA06",40123.000,"cc",28280.322,6.00,2828.033,1,6,0.100,20543.000,0.200,16815.000,0.300,2594.000,0.500,119.000,1.000,52.000,5.000,0
"07/10/06","09:13:50","AMMA06",40485.000,"cc",28293.395,6.00,2829.340,1,6,0.100,20729.000,0.200,16972.000,0.300,2617.000,0.500,119.000,1.000,48.000,5.000,0
"07/10/06","09:13:56","AMMA06",40466.000,"cc",28348.633,6.00,2834.864,1,6,0.100,20751.000,0.200,16911.000,0.300,2644.000,0.500,104.000,1.000,56.000,5.000,0
"07/10/06","09:14:02","AMMA06",40466.000,"cc",28324.115,6.00,2832.412,1,6,0.100,20760.000,0.200,16942.000,0.300,2616.000,0.500,107.000,1.000,41.000,5.000,0
"07/10/06","09:14:08","AMMA06",40458.000,"cc",28339.815,6.00,2833.982,1,6,0.100,20646.000,0.200,17080.000,0.300,2578.000,0.500,112.000,1.000,41.000,5.000,1.000
"07/10/06","09:14:14","AMMA06",40471.000,"cc",28341.287,6.00,2834.129,1,6,0.100,20718.000,0.200,16995.000,0.300,2588.000,0.500,124.000,1.000,46.000,5.000,0
"07/10/06","09:14:20","AMMA06",40767.000,"cc",28261.010,6.00,2826.101,1,6,0.100,20738.000,0.200,17206.000,0.300,2655.000,0.500,115.000,1.000,53.000,5.000,0